Location: Bh?mavarapp?du
(16.7041°N, 80.6518°E)
Time: 02:22:58
(UTC+00:00)

Cosmos 1455 - Pass Details

Date: 21 April 2021
Orbit: 498 x 521 km, 82.5° (Epoch: 15 May)

Event Time Altitude Azimuth Distance (km) Brightness Sun altitude
Rises 13:30:13 0° 167° (SSE) 2,601 5.5 -9.2°
Reaches altitude 10° 13:32:29 10° 157° (SSE) 1,713 4.5 -9.7°
Maximum altitude 13:35:52 32° 93° (E) 874 2.8 -10.5°
Drops below altitude 10° 13:39:14 10° 28° (NNE) 1,705 4.7 -11.2°
Sets 13:41:29 0° 18° (NNE) 2,586 5.7 -11.8°
